Regional Weather Roundup
Issued by NWS Charleston, WV

Home | Current Version | Previous Version | Text Only | Print | Product List | Glossary Off
Versions: 1 2 3 4 5 6 7 8 9 10 11 12 13 14 15 16 17 18 19 20 21 22 23 24 25 26 27 28 29 30 31 32 33 34 35 36 37 38 39 40 41 42 43 44 45 46 47 48 49 50

000
ASUS41 KRLX 180010
RWRRLX
West Virginia Regional Weather Roundup
National Weather Service Charleston WV
800 PM EDT WED SEP 17 2014

Note: "fair" indicates few or no clouds below 12,000 feet with no
significant weather and/or obstructions to visibility.

WVZ003-180100-
Northern Panhandle of West Virginia

CITY           SKY/WX    TMP DP  RH WIND       PRES   REMARKS
WHEELING       PTCLDY    63  48  58 N6        29.97S
$$

WVZ009-180100-
Northwest West Virginia

CITY           SKY/WX    TMP DP  RH WIND       PRES   REMARKS
PARKERSBURG    CLEAR     62  55  77 CALM      29.99S
$$

WVZ006-180100-
Western West Virginia

CITY           SKY/WX    TMP DP  RH WIND       PRES   REMARKS
HUNTINGTON     PTCLDY    62  57  83 CALM      29.97R
$$

WVZ015-180100-
West Central West Virginia

CITY           SKY/WX    TMP DP  RH WIND       PRES   REMARKS
CHARLESTON     MOCLDY    64  60  87 SE3       29.97S
$$

WVZ031-180100-
North Central West Virginia

CITY           SKY/WX    TMP DP  RH WIND       PRES   REMARKS
CLARKSBURG     PTCLDY    62  52  69 CALM      29.97S
MORGANTOWN     PTCLDY    63  53  70 CALM      29.98S
$$

WVZ035-042-045-180100-
South Central West Virginia

CITY           SKY/WX    TMP DP  RH WIND       PRES   REMARKS
BECKLEY        MOCLDY    62  57  83 NW3       30.02R
BLUEFIELD      MOCLDY    63  56  78 CALM      30.03R
LEWISBURG      PTCLDY    62  54  74 CALM      30.01R
$$

WVZ047-180100-
Northern Mountains of West Virginia

CITY           SKY/WX    TMP DP  RH WIND       PRES   REMARKS
ELKINS         CLOUDY    63  52  67 NW3       30.00S
$$

WVZ052-180100-
Eastern Panhandle of West Virginia

CITY           SKY/WX    TMP DP  RH WIND       PRES   REMARKS
MARTINSBURG    CLEAR     62  49  62 SE3       29.97S
PETERSBURG     MOCLDY    64  55  70 NW3       29.97R
$$



USA.gov is the U.S. government's official web portal to all federal, state and local government web resources and services.